Wetterdaten: Mittwoch, 22.05.2013
Datum Zeit Temperatur Luftfeuchte Luftdruck Regen Wind Richtung Richtung Taupunkt Windchill Windben
22.05.2013 00:00 5,6 C 96 % 1018,1 hPa 0,0 l/m 0,2 km/h (0 Bft) O-NO 67 5,0 C 5,4 C 0,0 km/h (0 Bft)
22.05.2013 00:05 5,7 C 96 % 1018,1 hPa 0,0 l/m 0,3 km/h (0 Bft) O-NO 67 5,1 C 5,4 C 0,0 km/h (0 Bft)
22.05.2013 00:10 5,6 C 96 % 1018,1 hPa 0,0 l/m 0,8 km/h (0 Bft) NO 45 5,0 C 5,4 C 2,3 km/h (1 Bft)
22.05.2013 00:15 5,6 C 96 % 1018,1 hPa 0,0 l/m 1,1 km/h (1 Bft) O 90 5,0 C 5,4 C 0,0 km/h (0 Bft)
22.05.2013 00:20 5,5 C 96 % 1018,1 hPa 0,0 l/m 1,3 km/h (1 Bft) NO 45 4,9 C 5,4 C 2,1 km/h (1 Bft)
22.05.2013 00:25 5,5 C 96 % 1018,1 hPa 0,0 l/m 1,0 km/h (0 Bft) NO 45 4,9 C 5,4 C 2,6 km/h (1 Bft)
22.05.2013 00:30 5,5 C 96 % 1018,1 hPa 0,0 l/m 0,8 km/h (0 Bft) O 90 4,9 C 5,3 C 0,0 km/h (0 Bft)
22.05.2013 00:35 5,4 C 96 % 1018,1 hPa 0,0 l/m 0,6 km/h (0 Bft) O-SO 112 4,8 C 5,3 C 0,0 km/h (0 Bft)
22.05.2013 00:40 5,4 C 96 % 1018,1 hPa 0,0 l/m 0,3 km/h (0 Bft) O-NO 67 4,8 C 5,2 C 0,0 km/h (0 Bft)
22.05.2013 00:45 5,5 C 96 % 1012,9 hPa 0,0 l/m 0,5 km/h (0 Bft) NO 45 4,9 C 5,3 C 0,0 km/h (0 Bft)
22.05.2013 00:50 5,4 C 96 % 1012,9 hPa 0,0 l/m 0,2 km/h (0 Bft) O-NO 67 4,8 C 5,3 C 0,0 km/h (0 Bft)
22.05.2013 00:55 5,5 C 96 % 1012,9 hPa 0,0 l/m 0,3 km/h (0 Bft) O-NO 67 4,9 C 5,3 C 2,4 km/h (1 Bft)
22.05.2013 01:00 5,5 C 96 % 1012,9 hPa 0,0 l/m 0,5 km/h (0 Bft) W-NW 292 4,9 C 5,4 C 0,0 km/h (0 Bft)
22.05.2013 01:05 5,6 C 96 % 1012,6 hPa 0,0 l/m 0,5 km/h (0 Bft) N-NO 22 5,0 C 5,4 C 0,0 km/h (0 Bft)
22.05.2013 01:10 5,5 C 96 % 1012,6 hPa 0,0 l/m 0,3 km/h (0 Bft) O 90 4,9 C 5,4 C 0,0 km/h (0 Bft)
22.05.2013 01:15 5,5 C 96 % 1012,6 hPa 0,0 l/m 0,0 km/h (0 Bft) O-SO 112 4,9 C 5,4 C 0,0 km/h (0 Bft)
22.05.2013 01:20 5,6 C 96 % 1012,6 hPa 0,0 l/m 0,0 km/h (0 Bft) NO 45 5,0 C 5,4 C 0,0 km/h (0 Bft)
22.05.2013 01:25 5,6 C 96 % 1012,6 hPa 0,0 l/m 0,2 km/h (0 Bft) NO 45 5,0 C 5,4 C 0,0 km/h (0 Bft)
22.05.2013 01:30 5,5 C 96 % 1012,6 hPa 0,0 l/m 0,2 km/h (0 Bft) O 90 4,9 C 5,4 C 0,0 km/h (0 Bft)
22.05.2013 01:35 5,5 C 96 % 1012,6 hPa 0,0 l/m 0,0 km/h (0 Bft) O 90 4,9 C 5,4 C 0,0 km/h (0 Bft)
22.05.2013 01:40 5,5 C 96 % 1012,6 hPa 0,0 l/m 0,0 km/h (0 Bft) S-SW 202 4,9 C 5,4 C 0,0 km/h (0 Bft)
22.05.2013 01:45 5,4 C 96 % 1012,4 hPa 0,0 l/m 0,0 km/h (0 Bft) S 180 4,8 C 5,4 C 0,0 km/h (0 Bft)
22.05.2013 01:50 5,5 C 96 % 1012,4 hPa 0,0 l/m 0,2 km/h (0 Bft) N-NO 22 4,9 C 5,4 C 0,0 km/h (0 Bft)
22.05.2013 01:55 5,5 C 96 % 1012,4 hPa 0,0 l/m 0,2 km/h (0 Bft) S 180 4,9 C 5,4 C 1,9 km/h (1 Bft)
22.05.2013 02:00 5,6 C 96 % 1012,4 hPa 0,0 l/m 0,2 km/h (0 Bft) SO 135 5,0 C 5,4 C 0,0 km/h (0 Bft)
22.05.2013 02:05 5,6 C 96 % 1012,2 hPa 0,0 l/m 0,2 km/h (0 Bft) O-SO 112 5,0 C 5,5 C 0,0 km/h (0 Bft)
22.05.2013 02:10 5,7 C 96 % 1012,2 hPa 0,0 l/m 0,0 km/h (0 Bft) SO 135 5,1 C 5,6 C 0,0 km/h (0 Bft)
22.05.2013 02:15 5,7 C 96 % 1012,2 hPa 0,0 l/m 0,0 km/h (0 Bft) N-NO 22 5,1 C 5,6 C 0,0 km/h (0 Bft)
22.05.2013 02:20 5,7 C 96 % 1012,2 hPa 0,0 l/m 0,0 km/h (0 Bft) S 180 5,1 C 5,6 C 0,0 km/h (0 Bft)
22.05.2013 02:25 5,7 C 97 % 1011,7 hPa 0,7 l/m 0,0 km/h (0 Bft) O 90 5,3 C 5,7 C 0,0 km/h (0 Bft)
22.05.2013 02:30 5,8 C 97 % 1011,7 hPa 0,0 l/m 0,0 km/h (0 Bft) O-SO 112 5,4 C 5,7 C 0,0 km/h (0 Bft)
22.05.2013 02:35 5,8 C 97 % 1011,7 hPa 0,0 l/m 0,0 km/h (0 Bft) W-NW 292 5,4 C 5,7 C 0,0 km/h (0 Bft)
22.05.2013 02:40 5,8 C 97 % 1011,7 hPa 0,0 l/m 0,0 km/h (0 Bft) O 90 5,4 C 5,7 C 0,0 km/h (0 Bft)
22.05.2013 02:45 5,9 C 97 % 1011,8 hPa 0,0 l/m 0,0 km/h (0 Bft) S 180 5,5 C 5,7 C 0,0 km/h (0 Bft)
22.05.2013 02:50 5,9 C 97 % 1011,8 hPa 0,0 l/m 0,3 km/h (0 Bft) SO 135 5,5 C 5,8 C 0,0 km/h (0 Bft)
22.05.2013 02:55 5,9 C 97 % 1011,8 hPa 0,0 l/m 0,3 km/h (0 Bft) O-NO 67 5,5 C 5,8 C 0,0 km/h (0 Bft)
22.05.2013 03:00 5,8 C 97 % 1011,8 hPa 0,0 l/m 0,0 km/h (0 Bft) NO 45 5,4 C 5,7 C 0,0 km/h (0 Bft)
22.05.2013 03:05 5,8 C 97 % 1011,7 hPa 0,0 l/m 0,0 km/h (0 Bft) N-NO 22 5,4 C 5,7 C 0,0 km/h (0 Bft)
22.05.2013 03:10 5,8 C 97 % 1011,7 hPa 0,0 l/m 0,0 km/h (0 Bft) S-SW 202 5,4 C 5,7 C 0,0 km/h (0 Bft)
22.05.2013 03:15 5,8 C 97 % 1011,7 hPa 0,0 l/m 0,0 km/h (0 Bft) S-SW 202 5,4 C 5,7 C 0,0 km/h (0 Bft)
22.05.2013 03:20 5,8 C 97 % 1011,7 hPa 0,0 l/m 0,0 km/h (0 Bft) S-SW 202 5,4 C 5,7 C 0,0 km/h (0 Bft)
22.05.2013 03:25 5,8 C 97 % 1011,6 hPa 0,0 l/m 0,0 km/h (0 Bft) S 180 5,4 C 5,7 C 0,0 km/h (0 Bft)
22.05.2013 03:30 5,8 C 97 % 1011,6 hPa 0,0 l/m 0,0 km/h (0 Bft) SO 135 5,4 C 5,7 C 0,0 km/h (0 Bft)
22.05.2013 03:35 5,7 C 97 % 1011,6 hPa 0,0 l/m 0,0 km/h (0 Bft) O-NO 67 5,3 C 5,7 C 0,0 km/h (0 Bft)
22.05.2013 03:40 5,6 C 97 % 1011,6 hPa 0,0 l/m 0,2 km/h (0 Bft) O-SO 112 5,2 C 5,6 C 0,0 km/h (0 Bft)
22.05.2013 03:45 5,7 C 97 % 1011,6 hPa 0,0 l/m 0,2 km/h (0 Bft) O-SO 112 5,3 C 5,6 C 0,0 km/h (0 Bft)
22.05.2013 03:50 5,8 C 97 % 1011,6 hPa 0,0 l/m 0,2 km/h (0 Bft) O 90 5,4 C 5,7 C 0,0 km/h (0 Bft)
22.05.2013 03:55 5,8 C 97 % 1011,6 hPa 0,0 l/m 0,5 km/h (0 Bft) S-SO 157 5,4 C 5,7 C 3,2 km/h (1 Bft)
22.05.2013 04:00 5,9 C 97 % 1011,6 hPa 0,0 l/m 0,8 km/h (0 Bft) NO 45 5,5 C 5,7 C 2,6 km/h (1 Bft)
22.05.2013 04:05 5,9 C 97 % 1011,4 hPa 0,0 l/m 1,3 km/h (1 Bft) S 180 5,5 C 5,7 C 3,1 km/h (1 Bft)
22.05.2013 04:10 5,9 C 97 % 1011,4 hPa 0,0 l/m 1,1 km/h (1 Bft) S-SO 157 5,5 C 5,8 C 0,0 km/h (0 Bft)
22.05.2013 04:15 5,9 C 97 % 1011,4 hPa 0,0 l/m 0,8 km/h (0 Bft) O-SO 112 5,5 C 5,8 C 0,0 km/h (0 Bft)
22.05.2013 04:20 5,9 C 97 % 1011,4 hPa 0,0 l/m 0,2 km/h (0 Bft) O 90 5,5 C 5,8 C 0,0 km/h (0 Bft)
22.05.2013 04:25 5,9 C 97 % 1011,2 hPa 0,0 l/m 0,2 km/h (0 Bft) NO 45 5,5 C 5,8 C 0,0 km/h (0 Bft)
22.05.2013 04:30 5,7 C 97 % 1011,2 hPa 0,0 l/m 0,0 km/h (0 Bft) NO 45 5,3 C 5,7 C 0,0 km/h (0 Bft)
22.05.2013 04:35 5,6 C 97 % 1011,2 hPa 0,0 l/m 0,0 km/h (0 Bft) O-NO 67 5,2 C 5,6 C 0,0 km/h (0 Bft)
22.05.2013 04:40 5,5 C 97 % 1011,2 hPa 0,0 l/m 0,0 km/h (0 Bft) S-SO 157 5,1 C 5,4 C 1,6 km/h (1 Bft)
22.05.2013 04:45 5,6 C 97 % 1011,2 hPa 0,0 l/m 0,2 km/h (0 Bft) NO 45 5,2 C 5,5 C 0,0 km/h (0 Bft)
22.05.2013 04:50 5,7 C 97 % 1011,2 hPa 0,0 l/m 0,6 km/h (0 Bft) N-NW 337 5,3 C 5,5 C 2,9 km/h (1 Bft)
22.05.2013 04:55 5,7 C 97 % 1011,2 hPa 0,0 l/m 1,0 km/h (0 Bft) NO 45 5,3 C 5,6 C 0,0 km/h (0 Bft)
22.05.2013 05:00 5,7 C 97 % 1011,2 hPa 0,0 l/m 0,8 km/h (0 Bft) O-NO 67 5,3 C 5,6 C 0,0 km/h (0 Bft)
22.05.2013 05:05 5,7 C 97 % 1010,9 hPa 0,0 l/m 0,0 km/h (0 Bft) NO 45 5,3 C 5,6 C 0,0 km/h (0 Bft)
22.05.2013 05:10 5,7 C 97 % 1010,9 hPa 0,0 l/m 0,2 km/h (0 Bft) O-NO 67 5,3 C 5,6 C 0,0 km/h (0 Bft)
22.05.2013 05:15 5,7 C 97 % 1010,9 hPa 0,0 l/m 0,3 km/h (0 Bft) O-NO 67 5,3 C 5,6 C 0,0 km/h (0 Bft)
22.05.2013 05:20 5,7 C 97 % 1010,9 hPa 0,0 l/m 0,2 km/h (0 Bft) N-NO 22 5,3 C 5,6 C 0,0 km/h (0 Bft)
22.05.2013 05:25 5,6 C 97 % 1010,8 hPa 0,0 l/m 0,2 km/h (0 Bft) W-SW 247 5,2 C 5,5 C 0,0 km/h (0 Bft)
22.05.2013 05:30 5,6 C 97 % 1010,8 hPa 0,0 l/m 0,0 km/h (0 Bft) W-SW 247 5,2 C 5,5 C 0,0 km/h (0 Bft)
22.05.2013 05:35 5,6 C 97 % 1010,8 hPa 0,0 l/m 0,0 km/h (0 Bft) O 90 5,2 C 5,5 C 0,0 km/h (0 Bft)
22.05.2013 05:40 5,5 C 97 % 1010,8 hPa 0,0 l/m 0,2 km/h (0 Bft) NO 45 5,1 C 5,4 C 0,0 km/h (0 Bft)
22.05.2013 05:45 5,5 C 97 % 1011,0 hPa 0,0 l/m 0,3 km/h (0 Bft) O-NO 67 5,1 C 5,4 C 0,0 km/h (0 Bft)
22.05.2013 05:50 5,6 C 97 % 1011,0 hPa 0,0 l/m 0,2 km/h (0 Bft) W 270 5,2 C 5,5 C 0,0 km/h (0 Bft)
22.05.2013 05:55 5,7 C 97 % 1011,0 hPa 0,0 l/m 0,0 km/h (0 Bft) SO 135 5,3 C 5,5 C 0,0 km/h (0 Bft)
22.05.2013 06:00 5,8 C 97 % 1011,0 hPa 0,0 l/m 0,0 km/h (0 Bft) NO 45 5,4 C 5,7 C 0,0 km/h (0 Bft)
22.05.2013 06:05 5,7 C 97 % 1011,7 hPa 0,0 l/m 0,2 km/h (0 Bft) N-NO 22 5,3 C 5,7 C 0,0 km/h (0 Bft)
22.05.2013 06:10 5,8 C 97 % 1011,7 hPa 0,7 l/m 0,3 km/h (0 Bft) NO 45 5,4 C 5,7 C 1,9 km/h (1 Bft)
22.05.2013 06:15 5,8 C 97 % 1011,7 hPa 0,0 l/m 0,5 km/h (0 Bft) N-NO 22 5,4 C 5,7 C 0,0 km/h (0 Bft)
22.05.2013 06:20 5,9 C 97 % 1011,7 hPa 0,0 l/m 0,5 km/h (0 Bft) NO 45 5,5 C 5,8 C 0,0 km/h (0 Bft)
22.05.2013 06:25 5,9 C 97 % 1011,4 hPa 0,0 l/m 0,2 km/h (0 Bft) NO 45 5,5 C 5,8 C 0,0 km/h (0 Bft)
22.05.2013 06:30 5,8 C 97 % 1011,4 hPa 0,0 l/m 0,0 km/h (0 Bft) NO 45 5,4 C 5,7 C 0,0 km/h (0 Bft)
22.05.2013 06:35 6,1 C 96 % 1011,4 hPa 0,0 l/m 0,0 km/h (0 Bft) S 180 5,5 C 5,9 C 0,0 km/h (0 Bft)
22.05.2013 06:40 9,9 C 96 % 1011,4 hPa 0,0 l/m 0,2 km/h (0 Bft) S-SO 157 9,3 C 8,4 C 0,0 km/h (0 Bft)
22.05.2013 06:45 8,7 C 96 % 1011,1 hPa 0,0 l/m 0,3 km/h (0 Bft) O-NO 67 8,1 C 10,0 C 0,0 km/h (0 Bft)
22.05.2013 06:50 8,2 C 95 % 1011,1 hPa 0,0 l/m 0,2 km/h (0 Bft) S 180 7,4 C 10,4 C 0,0 km/h (0 Bft)
22.05.2013 06:55 7,0 C 96 % 1011,1 hPa 0,0 l/m 0,2 km/h (0 Bft) NO 45 6,4 C 9,5 C 0,0 km/h (0 Bft)
22.05.2013 07:00 8,3 C 95 % 1011,1 hPa 0,0 l/m 0,2 km/h (0 Bft) O 90 7,5 C 8,7 C 0,0 km/h (0 Bft)
22.05.2013 07:05 9,6 C 95 % 1011,1 hPa 0,0 l/m 0,3 km/h (0 Bft) NO 45 8,8 C 9,2 C 0,0 km/h (0 Bft)
22.05.2013 07:10 11,2 C 93 % 1011,1 hPa 0,0 l/m 0,3 km/h (0 Bft) W-NW 292 10,1 C 11,1 C 0,0 km/h (0 Bft)
22.05.2013 07:15 12,5 C 89 % 1011,1 hPa 0,0 l/m 0,3 km/h (0 Bft) N-NO 22 10,7 C 12,8 C 0,0 km/h (0 Bft)
22.05.2013 07:20 13,4 C 82 % 1011,1 hPa 0,0 l/m 0,3 km/h (0 Bft) W 270 10,4 C 14,7 C 1,6 km/h (1 Bft)
22.05.2013 07:25 11,8 C 83 % 1011,2 hPa 0,0 l/m 0,3 km/h (0 Bft) N-NO 22 9,0 C 14,7 C 0,0 km/h (0 Bft)
22.05.2013 07:30 10,1 C 86 % 1011,2 hPa 0,0 l/m 0,3 km/h (0 Bft) S 180 7,9 C 13,5 C 1,8 km/h (1 Bft)
22.05.2013 07:35 11,2 C 86 % 1011,2 hPa 0,0 l/m 0,5 km/h (0 Bft) W-SW 247 8,9 C 12,4 C 0,0 km/h (0 Bft)
22.05.2013 07:40 14,6 C 79 % 1011,2 hPa 0,0 l/m 1,3 km/h (1 Bft) S 180 11,0 C 13,8 C 4,2 km/h (1 Bft)
22.05.2013 07:45 14,3 C 76 % 1011,1 hPa 0,0 l/m 1,8 km/h (1 Bft) S-SO 157 10,1 C 15,0 C 5,1 km/h (1 Bft)
22.05.2013 07:50 11,8 C 79 % 1011,1 hPa 0,0 l/m 2,1 km/h (1 Bft) SO 135 8,3 C 15,1 C 3,2 km/h (1 Bft)
22.05.2013 07:55 10,6 C 80 % 1011,1 hPa 0,0 l/m 1,8 km/h (1 Bft) O 90 7,3 C 14,0 C 0,0 km/h (0 Bft)
22.05.2013 08:00 9,8 C 84 % 1011,1 hPa 0,0 l/m 1,1 km/h (1 Bft) S-SO 157 7,2 C 12,7 C 0,0 km/h (0 Bft)
22.05.2013 08:05 9,4 C 84 % 1011,1 hPa 0,0 l/m 0,8 km/h (0 Bft) O 90 6,8 C 12,0 C 0,0 km/h (0 Bft)
22.05.2013 08:10 9,3 C 86 % 1011,1 hPa 0,0 l/m 0,6 km/h (0 Bft) SO 135 7,1 C 11,4 C 0,0 km/h (0 Bft)
22.05.2013 08:15 9,2 C 87 % 1011,1 hPa 0,0 l/m 0,5 km/h (0 Bft) S-SO 157 7,2 C 11,0 C 0,0 km/h (0 Bft)
22.05.2013 08:20 9,2 C 87 % 1011,1 hPa 0,0 l/m 0,8 km/h (0 Bft) SO 135 7,2 C 10,6 C 0,0 km/h (0 Bft)
22.05.2013 08:25 9,4 C 88 % 1011,1 hPa 0,0 l/m 0,3 km/h (0 Bft) S 180 7,5 C 10,6 C 0,0 km/h (0 Bft)
22.05.2013 08:30 9,5 C 87 % 1011,1 hPa 0,0 l/m 0,6 km/h (0 Bft) SO 135 7,4 C 10,8 C 1,6 km/h (1 Bft)
22.05.2013 08:35 10,6 C 87 % 1011,1 hPa 0,0 l/m 0,8 km/h (0 Bft) O 90 8,5 C 10,9 C 1,9 km/h (1 Bft)
22.05.2013 08:40 10,5 C 84 % 1011,1 hPa 0,0 l/m 1,3 km/h (1 Bft) NO 45 7,9 C 11,7 C 3,1 km/h (1 Bft)
22.05.2013 08:45 10,4 C 85 % 1011,1 hPa 0,0 l/m 1,3 km/h (1 Bft) S 180 8,0 C 11,8 C 5,3 km/h (1 Bft)
22.05.2013 08:50 10,3 C 84 % 1011,1 hPa 0,0 l/m 3,1 km/h (1 Bft) S-SW 202 7,7 C 11,8 C 5,8 km/h (2 Bft)
22.05.2013 08:55 10,1 C 84 % 1011,1 hPa 0,0 l/m 4,2 km/h (1 Bft) S 180 7,5 C 11,6 C 10,9 km/h (2 Bft)
22.05.2013 09:00 10,0 C 82 % 1011,1 hPa 0,0 l/m 5,8 km/h (2 Bft) S-SO 157 7,1 C 11,1 C 9,0 km/h (2 Bft)
22.05.2013 09:05 10,1 C 83 % 1011,3 hPa 0,0 l/m 6,6 km/h (2 Bft) S-SW 202 7,3 C 10,5 C 12,9 km/h (3 Bft)
22.05.2013 09:10 9,8 C 85 % 1011,3 hPa 0,0 l/m 6,0 km/h (2 Bft) O-SO 112 7,4 C 9,9 C 3,1 km/h (1 Bft)
22.05.2013 09:15 9,7 C 86 % 1011,3 hPa 0,0 l/m 4,2 km/h (1 Bft) S 180 7,5 C 10,0 C 5,5 km/h (1 Bft)
22.05.2013 09:20 9,8 C 87 % 1011,3 hPa 0,0 l/m 3,5 km/h (1 Bft) W-SW 247 7,7 C 9,6 C 2,6 km/h (1 Bft)
22.05.2013 09:25 9,8 C 87 % 1011,6 hPa 0,0 l/m 4,0 km/h (1 Bft) SO 135 7,7 C 9,6 C 4,8 km/h (1 Bft)
22.05.2013 09:30 9,5 C 87 % 1011,6 hPa 0,0 l/m 4,0 km/h (1 Bft) N 360 7,4 C 9,4 C 5,5 km/h (1 Bft)
22.05.2013 09:35 9,4 C 87 % 1011,6 hPa 0,0 l/m 3,7 km/h (1 Bft) S-SW 202 7,3 C 9,4 C 3,7 km/h (1 Bft)
22.05.2013 09:40 9,4 C 88 % 1011,6 hPa 0,0 l/m 3,5 km/h (1 Bft) S 180 7,5 C 9,2 C 5,1 km/h (1 Bft)
22.05.2013 09:45 9,4 C 88 % 1011,7 hPa 0,0 l/m 4,2 km/h (1 Bft) S-SO 157 7,5 C 9,0 C 3,1 km/h (1 Bft)
22.05.2013 09:50 9,5 C 88 % 1011,7 hPa 0,0 l/m 4,2 km/h (1 Bft) S 180 7,6 C 9,2 C 2,1 km/h (1 Bft)
22.05.2013 09:55 9,8 C 88 % 1011,7 hPa 0,0 l/m 3,5 km/h (1 Bft) S-SO 157 7,9 C 9,4 C 3,7 km/h (1 Bft)
22.05.2013 10:00 10,1 C 88 % 1011,7 hPa 0,0 l/m 3,9 km/h (1 Bft) S-SO 157 8,2 C 9,7 C 3,4 km/h (1 Bft)
22.05.2013 10:05 10,5 C 87 % 1011,8 hPa 0,0 l/m 3,7 km/h (1 Bft) S-SW 202 8,4 C 10,1 C 6,0 km/h (2 Bft)
22.05.2013 10:10 10,3 C 86 % 1011,8 hPa 0,0 l/m 4,2 km/h (1 Bft) S-SO 157 8,1 C 10,4 C 7,2 km/h (2 Bft)
22.05.2013 10:15 10,2 C 86 % 1011,8 hPa 0,0 l/m 5,5 km/h (1 Bft) SO 135 8,0 C 9,8 C 5,0 km/h (1 Bft)
22.05.2013 10:20 9,8 C 85 % 1011,8 hPa 0,0 l/m 6,1 km/h (2 Bft) SO 135 7,4 C 9,6 C 6,1 km/h (2 Bft)
22.05.2013 10:25 10,0 C 85 % 1011,9 hPa 0,0 l/m 6,3 km/h (2 Bft) S 180 7,6 C 9,4 C 15,3 km/h (3 Bft)
22.05.2013 10:30 10,1 C 85 % 1011,9 hPa 0,0 l/m 5,3 km/h (1 Bft) O-SO 112 7,7 C 9,9 C 6,3 km/h (2 Bft)
22.05.2013 10:35 10,3 C 86 % 1011,9 hPa 0,0 l/m 4,2 km/h (1 Bft) O-SO 112 8,1 C 10,4 C 6,8 km/h (2 Bft)
22.05.2013 10:40 10,5 C 85 % 1011,9 hPa 0,0 l/m 4,0 km/h (1 Bft) S 180 8,1 C 10,8 C 6,1 km/h (2 Bft)
22.05.2013 10:45 10,6 C 84 % 1012,1 hPa 0,0 l/m 4,7 km/h (1 Bft) S-SO 157 8,0 C 10,9 C 7,1 km/h (2 Bft)
22.05.2013 10:50 10,3 C 82 % 1012,1 hPa 0,0 l/m 6,1 km/h (2 Bft) S-SW 202 7,4 C 10,4 C 10,9 km/h (2 Bft)
22.05.2013 10:55 9,8 C 81 % 1012,1 hPa 0,0 l/m 7,9 km/h (2 Bft) S 180 6,7 C 8,5 C 15,8 km/h (3 Bft)
22.05.2013 11:00 9,8 C 84 % 1012,1 hPa 0,0 l/m 7,9 km/h (2 Bft) S 180 7,2 C 7,9 C 6,0 km/h (2 Bft)
22.05.2013 11:05 10,1 C 85 % 1012,1 hPa 0,0 l/m 6,1 km/h (2 Bft) SW 225 7,7 C 9,7 C 9,3 km/h (2 Bft)
22.05.2013 11:10 10,2 C 83 % 1012,1 hPa 0,0 l/m 5,1 km/h (1 Bft) S-SW 202 7,4 C 10,2 C 7,4 km/h (2 Bft)
22.05.2013 11:15 10,0 C 83 % 1012,1 hPa 0,0 l/m 6,6 km/h (2 Bft) S 180 7,2 C 9,6 C 9,5 km/h (2 Bft)
22.05.2013 11:20 10,1 C 84 % 1012,1 hPa 0,0 l/m 8,2 km/h (2 Bft) O-SO 112 7,5 C 7,9 C 10,6 km/h (2 Bft)
22.05.2013 11:25 10,0 C 83 % 1012,1 hPa 0,0 l/m 8,0 km/h (2 Bft) W-SW 247 7,2 C 8,0 C 17,2 km/h (3 Bft)
22.05.2013 11:30 10,1 C 84 % 1012,1 hPa 0,0 l/m 6,6 km/h (2 Bft) S-SW 202 7,5 C 9,5 C 2,4 km/h (1 Bft)
22.05.2013 11:35 10,1 C 84 % 1012,1 hPa 0,0 l/m 5,1 km/h (1 Bft) S 180 7,5 C 10,3 C 7,2 km/h (2 Bft)
22.05.2013 11:40 10,1 C 83 % 1012,1 hPa 0,0 l/m 5,1 km/h (1 Bft) S 180 7,3 C 10,3 C 13,5 km/h (3 Bft)
22.05.2013 11:45 10,1 C 83 % 1012,3 hPa 0,0 l/m 6,1 km/h (2 Bft) S 180 7,3 C 9,7 C 4,5 km/h (1 Bft)
22.05.2013 11:50 9,9 C 84 % 1012,3 hPa 0,0 l/m 6,6 km/h (2 Bft) S 180 7,3 C 9,3 C 6,4 km/h (2 Bft)
22.05.2013 11:55 9,9 C 85 % 1012,3 hPa 0,0 l/m 5,3 km/h (1 Bft) S-SW 202 7,5 C 9,7 C 5,1 km/h (1 Bft)
22.05.2013 12:00 9,7 C 85 % 1012,3 hPa 0,0 l/m 6,1 km/h (2 Bft) S 180 7,3 C 9,2 C 11,6 km/h (2 Bft)
22.05.2013 12:05 9,5 C 85 % 1012,4 hPa 0,0 l/m 6,3 km/h (2 Bft) S-SO 157 7,1 C 8,9 C 2,7 km/h (1 Bft)
22.05.2013 12:10 9,7 C 86 % 1012,4 hPa 0,0 l/m 5,5 km/h (1 Bft) SO 135 7,5 C 9,2 C 4,5 km/h (1 Bft)
22.05.2013 12:15 9,7 C 86 % 1012,4 hPa 0,0 l/m 4,5 km/h (1 Bft) S 180 7,5 C 9,4 C 2,3 km/h (1 Bft)
22.05.2013 12:20 10,0 C 87 % 1012,4 hPa 0,0 l/m 3,9 km/h (1 Bft) S-SW 202 7,9 C 10,0 C 4,7 km/h (1 Bft)
22.05.2013 12:25 10,1 C 86 % 1012,5 hPa 0,0 l/m 4,0 km/h (1 Bft) S-SW 202 7,9 C 10,2 C 8,5 km/h (2 Bft)
22.05.2013 12:30 10,3 C 86 % 1012,5 hPa 0,0 l/m 5,0 km/h (1 Bft) S-SW 202 8,1 C 10,0 C 8,0 km/h (2 Bft)
22.05.2013 12:35 10,5 C 86 % 1012,5 hPa 0,0 l/m 5,1 km/h (1 Bft) S 180 8,3 C 10,0 C 7,9 km/h (2 Bft)
22.05.2013 12:40 10,0 C 81 % 1012,5 hPa 0,0 l/m 7,7 km/h (2 Bft) SO 135 6,9 C 8,3 C 10,1 km/h (2 Bft)
22.05.2013 12:45 10,1 C 81 % 1012,7 hPa 0,0 l/m 9,8 km/h (2 Bft) S 180 7,0 C 6,5 C 17,1 km/h (3 Bft)
22.05.2013 12:50 10,3 C 78 % 1012,7 hPa 0,0 l/m 10,8 km/h (2 Bft) S 180 6,6 C 6,1 C 16,1 km/h (3 Bft)
22.05.2013 12:55 10,6 C 80 % 1012,7 hPa 0,0 l/m 10,0 km/h (2 Bft) S 180 7,3 C 7,3 C 19,2 km/h (3 Bft)
22.05.2013 13:00 10,2 C 81 % 1012,7 hPa 0,0 l/m 9,2 km/h (2 Bft) S 180 7,1 C 7,9 C 8,4 km/h (2 Bft)
22.05.2013 13:05 10,0 C 80 % 1012,9 hPa 0,0 l/m 9,7 km/h (2 Bft) S 180 6,7 C 7,1 C 23,2 km/h (4 Bft)
22.05.2013 13:10 9,8 C 79 % 1012,9 hPa 0,0 l/m 9,3 km/h (2 Bft) S 180 6,3 C 7,5 C 13,4 km/h (3 Bft)
22.05.2013 13:15 9,7 C 80 % 1012,9 hPa 0,0 l/m 9,7 km/h (2 Bft) S 180 6,4 C 7,0 C 11,6 km/h (2 Bft)
22.05.2013 13:20 9,5 C 79 % 1012,9 hPa 0,0 l/m 9,8 km/h (2 Bft) S 180 6,0 C 6,5 C 13,8 km/h (3 Bft)
22.05.2013 13:25 9,5 C 80 % 1012,9 hPa 0,0 l/m 9,0 km/h (2 Bft) SO 135 6,2 C 6,8 C 13,2 km/h (3 Bft)
22.05.2013 13:30 9,6 C 79 % 1012,9 hPa 0,0 l/m 9,7 km/h (2 Bft) S 180 6,1 C 6,3 C 9,3 km/h (2 Bft)
22.05.2013 13:35 9,8 C 78 % 1012,9 hPa 0,0 l/m 9,3 km/h (2 Bft) S-SW 202 6,1 C 6,9 C 13,4 km/h (3 Bft)
22.05.2013 13:40 10,6 C 78 % 1012,9 hPa 0,0 l/m 9,8 km/h (2 Bft) S 180 6,9 C 7,5 C 7,6 km/h (2 Bft)
22.05.2013 13:45 11,0 C 76 % 1013,1 hPa 0,0 l/m 10,6 km/h (2 Bft) S 180 6,9 C 7,7 C 13,0 km/h (3 Bft)
22.05.2013 13:50 10,9 C 75 % 1013,1 hPa 0,0 l/m 10,5 km/h (2 Bft) S 180 6,6 C 8,1 C 10,8 km/h (2 Bft)
22.05.2013 13:55 10,9 C 75 % 1013,1 hPa 0,0 l/m 11,3 km/h (2 Bft) S-SW 202 6,6 C 7,6 C 19,2 km/h (3 Bft)
22.05.2013 14:00 10,9 C 74 % 1013,1 hPa 0,0 l/m 12,2 km/h (2 Bft) S 180 6,5 C 6,9 C 13,8 km/h (3 Bft)
22.05.2013 14:05 11,1 C 74 % 1013,3 hPa 0,0 l/m 12,6 km/h (3 Bft) S 180 6,6 C 6,8 C 12,6 km/h (3 Bft)
22.05.2013 14:10 11,4 C 75 % 1013,3 hPa 0,0 l/m 10,8 km/h (2 Bft) S 180 7,1 C 8,5 C 13,8 km/h (3 Bft)
22.05.2013 14:15 11,3 C 73 % 1013,3 hPa 0,0 l/m 11,3 km/h (2 Bft) S-SO 157 6,6 C 8,5 C 19,0 km/h (3 Bft)
22.05.2013 14:20 10,9 C 71 % 1013,3 hPa 0,0 l/m 12,7 km/h (3 Bft) S-SO 157 5,9 C 7,1 C 21,2 km/h (4 Bft)
22.05.2013 14:25 10,9 C 73 % 1013,4 hPa 0,0 l/m 13,4 km/h (3 Bft) S-SO 157 6,3 C 6,0 C 26,1 km/h (4 Bft)
22.05.2013 14:30 11,4 C 75 % 1013,4 hPa 0,0 l/m 11,1 km/h (2 Bft) S 180 7,1 C 7,5 C 13,0 km/h (3 Bft)
22.05.2013 14:35 11,3 C 72 % 1013,4 hPa 0,0 l/m 9,8 km/h (2 Bft) S 180 6,4 C 9,0 C 12,6 km/h (3 Bft)
22.05.2013 14:40 10,8 C 75 % 1013,4 hPa 0,0 l/m 9,0 km/h (2 Bft) S 180 6,5 C 9,5 C 9,0 km/h (2 Bft)
22.05.2013 14:45 10,2 C 73 % 1013,6 hPa 0,0 l/m 10,5 km/h (2 Bft) S-SW 202 5,6 C 7,3 C 16,9 km/h (3 Bft)
22.05.2013 14:50 10,6 C 75 % 1013,6 hPa 0,0 l/m 10,5 km/h (2 Bft) S-SW 202 6,4 C 7,2 C 10,5 km/h (2 Bft)
22.05.2013 14:55 10,6 C 73 % 1013,6 hPa 0,0 l/m 11,3 km/h (2 Bft) S-SO 157 6,0 C 6,6 C 24,8 km/h (4 Bft)
22.05.2013 15:00 10,6 C 73 % 1013,6 hPa 0,0 l/m 12,1 km/h (2 Bft) NW 315 6,0 C 5,8 C 11,7 km/h (2 Bft)
22.05.2013 15:05 10,6 C 74 % 1013,7 hPa 0,0 l/m 11,1 km/h (2 Bft) SO 135 6,2 C 6,3 C 16,6 km/h (3 Bft)
22.05.2013 15:10 10,4 C 75 % 1013,7 hPa 0,0 l/m 8,9 km/h (2 Bft) S-SO 157 6,2 C 7,4 C 10,3 km/h (2 Bft)
22.05.2013 15:15 11,0 C 75 % 1013,7 hPa 0,0 l/m 8,4 km/h (2 Bft) S 180 6,7 C 8,4 C 8,5 km/h (2 Bft)
22.05.2013 15:20 10,8 C 74 % 1013,7 hPa 0,0 l/m 9,7 km/h (2 Bft) S 180 6,4 C 7,8 C 17,4 km/h (3 Bft)
22.05.2013 15:25 11,2 C 74 % 1013,8 hPa 0,0 l/m 9,7 km/h (2 Bft) S-SO 157 6,7 C 7,8 C 10,9 km/h (2 Bft)
22.05.2013 15:30 10,5 C 71 % 1013,8 hPa 0,0 l/m 12,1 km/h (2 Bft) S-SW 202 5,5 C 6,2 C 14,8 km/h (3 Bft)
22.05.2013 15:35 10,2 C 74 % 1013,8 hPa 0,0 l/m 11,9 km/h (2 Bft) S 180 5,8 C 5,8 C 14,5 km/h (3 Bft)
22.05.2013 15:40 9,8 C 75 % 1013,8 hPa 0,0 l/m 11,3 km/h (2 Bft) S 180 5,6 C 5,4 C 17,9 km/h (3 Bft)
22.05.2013 15:45 9,9 C 76 % 1013,8 hPa 0,0 l/m 10,5 km/h (2 Bft) S 180 5,9 C 5,4 C 10,6 km/h (2 Bft)
22.05.2013 15:50 9,6 C 76 % 1013,8 hPa 0,0 l/m 10,1 km/h (2 Bft) S-SW 202 5,6 C 5,5 C 8,0 km/h (2 Bft)
22.05.2013 15:55 9,4 C 77 % 1013,8 hPa 0,0 l/m 9,5 km/h (2 Bft) S 180 5,6 C 5,7 C 10,8 km/h (2 Bft)
22.05.2013 16:00 9,2 C 78 % 1013,8 hPa 0,0 l/m 7,9 km/h (2 Bft) S-SW 202 5,6 C 6,9 C 7,1 km/h (2 Bft)
22.05.2013 16:05 8,8 C 79 % 1014,0 hPa 0,0 l/m 8,5 km/h (2 Bft) W 270 5,4 C 6,1 C 8,2 km/h (2 Bft)
22.05.2013 16:10 8,6 C 80 % 1014,0 hPa 0,0 l/m 8,2 km/h (2 Bft) S 180 5,3 C 5,8 C 8,4 km/h (2 Bft)
22.05.2013 16:15 8,4 C 82 % 1014,0 hPa 0,0 l/m 7,7 km/h (2 Bft) W-SW 247 5,5 C 5,9 C 11,7 km/h (2 Bft)
22.05.2013 16:20 8,7 C 83 % 1014,0 hPa 0,0 l/m 6,9 km/h (2 Bft) W-SW 247 6,0 C 6,8 C 9,2 km/h (2 Bft)
22.05.2013 16:25 8,8 C 83 % 1014,1 hPa 0,0 l/m 6,0 km/h (2 Bft) S 180 6,1 C 7,4 C 4,3 km/h (1 Bft)
22.05.2013 16:30 8,7 C 82 % 1014,1 hPa 0,0 l/m 6,6 km/h (2 Bft) SO 135 5,8 C 7,3 C 8,9 km/h (2 Bft)
22.05.2013 16:35 8,9 C 82 % 1014,1 hPa 0,0 l/m 7,6 km/h (2 Bft) S-SW 202 6,0 C 6,2 C 11,9 km/h (2 Bft)
22.05.2013 16:40 9,4 C 81 % 1014,1 hPa 0,0 l/m 7,6 km/h (2 Bft) S 180 6,3 C 6,7 C 8,2 km/h (2 Bft)
22.05.2013 16:45 9,1 C 78 % 1014,1 hPa 0,0 l/m 8,0 km/h (2 Bft) S 180 5,5 C 6,6 C 8,0 km/h (2 Bft)
22.05.2013 16:50 8,8 C 78 % 1014,1 hPa 0,0 l/m 9,2 km/h (2 Bft) S-SW 202 5,2 C 5,1 C 11,3 km/h (2 Bft)
22.05.2013 16:55 8,8 C 78 % 1014,1 hPa 0,0 l/m 9,3 km/h (2 Bft) S 180 5,2 C 5,0 C 13,5 km/h (3 Bft)
22.05.2013 17:00 9,6 C 78 % 1014,1 hPa 0,0 l/m 8,7 km/h (2 Bft) S 180 6,0 C 6,0 C 11,7 km/h (2 Bft)
22.05.2013 17:05 9,8 C 77 % 1014,0 hPa 0,0 l/m 8,5 km/h (2 Bft) S 180 6,0 C 6,6 C 10,9 km/h (2 Bft)
22.05.2013 17:10 9,5 C 76 % 1014,0 hPa 0,0 l/m 8,9 km/h (2 Bft) S-SW 202 5,5 C 6,3 C 9,3 km/h (2 Bft)
22.05.2013 17:15 8,8 C 77 % 1014,0 hPa 0,0 l/m 10,3 km/h (2 Bft) S-SO 157 5,0 C 4,6 C 8,4 km/h (2 Bft)
22.05.2013 17:20 8,5 C 79 % 1014,0 hPa 0,0 l/m 9,0 km/h (2 Bft) W 270 5,1 C 4,9 C 7,2 km/h (2 Bft)
22.05.2013 17:25 8,4 C 81 % 1014,0 hPa 0,0 l/m 7,2 km/h (2 Bft) S-SW 202 5,3 C 6,4 C 13,8 km/h (3 Bft)
22.05.2013 17:30 7,8 C 84 % 1014,0 hPa 0,0 l/m 7,2 km/h (2 Bft) W-SW 247 5,3 C 5,9 C 8,5 km/h (2 Bft)
22.05.2013 17:35 7,8 C 86 % 1014,0 hPa 0,0 l/m 7,9 km/h (2 Bft) SW 225 5,6 C 4,8 C 9,3 km/h (2 Bft)
22.05.2013 17:40 7,7 C 88 % 1014,0 hPa 0,7 l/m 7,2 km/h (2 Bft) S-SW 202 5,8 C 5,4 C 8,0 km/h (2 Bft)
22.05.2013 17:45 7,6 C 88 % 1014,4 hPa 0,0 l/m 6,9 km/h (2 Bft) S 180 5,7 C 5,7 C 7,9 km/h (2 Bft)
22.05.2013 17:50 7,4 C 88 % 1014,4 hPa 0,0 l/m 7,4 km/h (2 Bft) SO 135 5,5 C 5,0 C 14,8 km/h (3 Bft)
22.05.2013 17:55 7,2 C 88 % 1014,4 hPa 0,0 l/m 8,5 km/h (2 Bft) S-SO 157 5,3 C 3,7 C 10,9 km/h (2 Bft)
22.05.2013 18:00 7,0 C 89 % 1014,4 hPa 0,0 l/m 10,1 km/h (2 Bft) S-SO 157 5,3 C 1,8 C 14,3 km/h (3 Bft)
22.05.2013 18:05 7,0 C 89 % 1014,3 hPa 0,0 l/m 10,1 km/h (2 Bft) S 180 5,3 C 1,8 C 11,6 km/h (2 Bft)
22.05.2013 18:10 7,0 C 89 % 1014,3 hPa 0,0 l/m 9,5 km/h (2 Bft) S 180 5,3 C 2,3 C 7,2 km/h (2 Bft)
22.05.2013 18:15 7,0 C 89 % 1014,3 hPa 0,0 l/m 9,2 km/h (2 Bft) S-SW 202 5,3 C 2,5 C 11,1 km/h (2 Bft)
22.05.2013 18:20 7,2 C 90 % 1014,3 hPa 0,0 l/m 8,0 km/h (2 Bft) SW 225 5,7 C 3,9 C 7,9 km/h (2 Bft)
22.05.2013 18:25 7,1 C 90 % 1014,1 hPa 0,0 l/m 7,2 km/h (2 Bft) SW 225 5,6 C 4,8 C 5,6 km/h (1 Bft)
22.05.2013 18:30 7,0 C 90 % 1014,1 hPa 0,0 l/m 8,2 km/h (2 Bft) W-SW 247 5,5 C 3,8 C 7,7 km/h (2 Bft)
22.05.2013 18:35 7,0 C 90 % 1014,1 hPa 0,0 l/m 8,2 km/h (2 Bft) W-SW 247 5,5 C 3,6 C 8,2 km/h (2 Bft)
22.05.2013 18:40 6,9 C 91 % 1014,1 hPa 0,0 l/m 7,2 km/h (2 Bft) SW 225 5,5 C 4,6 C 11,9 km/h (2 Bft)
22.05.2013 18:45 6,9 C 91 % 1014,0 hPa 0,0 l/m 7,4 km/h (2 Bft) S 180 5,5 C 4,4 C 8,4 km/h (2 Bft)
22.05.2013 18:50 6,8 C 91 % 1014,0 hPa 0,0 l/m 7,1 km/h (2 Bft) S 180 5,4 C 4,6 C 8,9 km/h (2 Bft)
22.05.2013 18:55 6,8 C 91 % 1014,0 hPa 0,0 l/m 7,1 km/h (2 Bft) SW 225 5,4 C 4,6 C 9,0 km/h (2 Bft)
22.05.2013 19:00 6,8 C 92 % 1014,0 hPa 0,0 l/m 6,6 km/h (2 Bft) SW 225 5,6 C 5,2 C 7,7 km/h (2 Bft)
22.05.2013 19:05 6,8 C 92 % 1013,9 hPa 0,0 l/m 6,3 km/h (2 Bft) S-SO 157 5,6 C 5,4 C 11,7 km/h (2 Bft)
22.05.2013 19:10 6,8 C 92 % 1013,9 hPa 0,0 l/m 6,3 km/h (2 Bft) S-SO 157 5,6 C 5,4 C 5,1 km/h (1 Bft)
22.05.2013 19:15 6,8 C 92 % 1013,9 hPa 0,0 l/m 6,1 km/h (2 Bft) S-SW 202 5,6 C 5,5 C 3,4 km/h (1 Bft)
22.05.2013 19:20 6,8 C 92 % 1013,9 hPa 0,0 l/m 4,7 km/h (1 Bft) S-SO 157 5,6 C 6,0 C 3,9 km/h (1 Bft)
22.05.2013 19:25 6,7 C 93 % 1013,9 hPa 0,0 l/m 4,3 km/h (1 Bft) S 180 5,6 C 6,2 C 5,6 km/h (1 Bft)
22.05.2013 19:30 6,7 C 93 % 1013,9 hPa 0,0 l/m 5,5 km/h (1 Bft) SO 135 5,6 C 5,6 C 6,0 km/h (2 Bft)
22.05.2013 19:35 6,7 C 93 % 1013,9 hPa 0,0 l/m 6,3 km/h (2 Bft) S 180 5,6 C 5,3 C 6,3 km/h (2 Bft)
22.05.2013 19:40 6,6 C 93 % 1013,9 hPa 0,0 l/m 6,1 km/h (2 Bft) SO 135 5,6 C 5,3 C 9,0 km/h (2 Bft)
22.05.2013 19:45 6,6 C 93 % 1014,1 hPa 0,0 l/m 6,6 km/h (2 Bft) S 180 5,6 C 4,9 C 8,4 km/h (2 Bft)
22.05.2013 19:50 6,5 C 93 % 1014,1 hPa 0,7 l/m 6,6 km/h (2 Bft) W-SW 247 5,5 C 4,8 C 6,8 km/h (2 Bft)
22.05.2013 19:55 6,5 C 93 % 1014,1 hPa 0,0 l/m 5,8 km/h (2 Bft) S-SO 157 5,5 C 5,2 C 8,4 km/h (2 Bft)
22.05.2013 20:00 6,5 C 93 % 1014,1 hPa 0,0 l/m 5,0 km/h (1 Bft) S-SW 202 5,5 C 5,5 C 3,7 km/h (1 Bft)
22.05.2013 20:05 6,4 C 93 % 1014,2 hPa 0,0 l/m 5,1 km/h (1 Bft) SO 135 5,4 C 5,4 C 5,3 km/h (1 Bft)
22.05.2013 20:10 6,4 C 93 % 1014,2 hPa 0,0 l/m 5,5 km/h (1 Bft) S-SW 202 5,4 C 5,3 C 11,3 km/h (2 Bft)
22.05.2013 20:15 6,4 C 94 % 1014,2 hPa 0,0 l/m 6,1 km/h (2 Bft) S-SO 157 5,5 C 5,1 C 9,2 km/h (2 Bft)
22.05.2013 20:20 6,4 C 94 % 1014,2 hPa 0,0 l/m 5,6 km/h (1 Bft) S 180 5,5 C 5,2 C 3,9 km/h (1 Bft)
22.05.2013 20:25 6,4 C 94 % 1014,3 hPa 0,0 l/m 4,3 km/h (1 Bft) SO 135 5,5 C 5,7 C 10,9 km/h (2 Bft)
22.05.2013 20:30 6,3 C 94 % 1014,3 hPa 0,0 l/m 5,6 km/h (1 Bft) S 180 5,4 C 5,2 C 7,4 km/h (2 Bft)
22.05.2013 20:35 6,3 C 94 % 1014,3 hPa 0,0 l/m 6,8 km/h (2 Bft) S-SO 157 5,4 C 4,6 C 5,6 km/h (1 Bft)
22.05.2013 20:40 6,3 C 94 % 1014,3 hPa 0,0 l/m 6,4 km/h (2 Bft) S 180 5,4 C 4,8 C 6,1 km/h (2 Bft)
22.05.2013 20:45 6,3 C 94 % 1014,1 hPa 0,0 l/m 5,3 km/h (1 Bft) SO 135 5,4 C 5,2 C 3,1 km/h (1 Bft)
22.05.2013 20:50 6,3 C 94 % 1014,1 hPa 0,7 l/m 5,0 km/h (1 Bft) S 180 5,4 C 5,4 C 11,4 km/h (2 Bft)
22.05.2013 20:55 6,3 C 94 % 1014,1 hPa 0,0 l/m 6,1 km/h (2 Bft) S 180 5,4 C 5,1 C 7,2 km/h (2 Bft)
22.05.2013 21:00 6,3 C 94 % 1014,1 hPa 0,0 l/m 6,8 km/h (2 Bft) S-SW 202 5,4 C 4,6 C 6,6 km/h (2 Bft)
22.05.2013 21:05 6,3 C 94 % 1014,0 hPa 0,0 l/m 6,1 km/h (2 Bft) S 180 5,4 C 5,1 C 10,6 km/h (2 Bft)
22.05.2013 21:10 6,2 C 94 % 1014,0 hPa 0,0 l/m 6,9 km/h (2 Bft) S-SW 202 5,3 C 4,3 C 10,1 km/h (2 Bft)
22.05.2013 21:15 6,1 C 94 % 1014,0 hPa 0,0 l/m 6,9 km/h (2 Bft) S-SW 202 5,2 C 4,2 C 5,8 km/h (2 Bft)
22.05.2013 21:20 6,1 C 94 % 1014,0 hPa 0,0 l/m 4,8 km/h (1 Bft) S-SW 202 5,2 C 5,3 C 4,2 km/h (1 Bft)
22.05.2013 21:25 6,1 C 94 % 1014,2 hPa 0,0 l/m 4,3 km/h (1 Bft) S 180 5,2 C 5,4 C 5,6 km/h (1 Bft)
22.05.2013 21:30 6,0 C 94 % 1014,2 hPa 0,0 l/m 4,3 km/h (1 Bft) S-SO 157 5,1 C 5,4 C 2,7 km/h (1 Bft)
22.05.2013 21:35 6,0 C 94 % 1014,2 hPa 0,0 l/m 4,2 km/h (1 Bft) S-SO 157 5,1 C 5,4 C 4,7 km/h (1 Bft)
22.05.2013 21:40 6,0 C 95 % 1014,2 hPa 0,0 l/m 3,2 km/h (1 Bft) O-NO 67 5,3 C 5,9 C 4,8 km/h (1 Bft)
22.05.2013 21:45 5,9 C 96 % 1014,4 hPa 0,0 l/m 3,4 km/h (1 Bft) S-SW 202 5,3 C 5,7 C 4,3 km/h (1 Bft)
22.05.2013 21:50 5,9 C 96 % 1014,4 hPa 0,0 l/m 3,9 km/h (1 Bft) O-SO 112 5,3 C 5,4 C 4,7 km/h (1 Bft)
22.05.2013 21:55 5,9 C 96 % 1014,4 hPa 0,0 l/m 3,7 km/h (1 Bft) O-SO 112 5,3 C 5,4 C 3,1 km/h (1 Bft)
22.05.2013 22:00 5,9 C 96 % 1014,4 hPa 0,0 l/m 3,4 km/h (1 Bft) O 90 5,3 C 5,6 C 6,1 km/h (2 Bft)
22.05.2013 22:05 5,9 C 96 % 1014,6 hPa 0,0 l/m 3,7 km/h (1 Bft) O 90 5,3 C 5,4 C 6,9 km/h (2 Bft)
22.05.2013 22:10 5,8 C 96 % 1014,6 hPa 0,0 l/m 3,9 km/h (1 Bft) SO 135 5,2 C 5,4 C 4,5 km/h (1 Bft)
22.05.2013 22:15 5,8 C 96 % 1014,6 hPa 0,0 l/m 4,5 km/h (1 Bft) O-SO 112 5,2 C 5,1 C 7,6 km/h (2 Bft)
22.05.2013 22:20 5,8 C 96 % 1014,6 hPa 0,0 l/m 3,5 km/h (1 Bft) S 180 5,2 C 5,6 C 2,6 km/h (1 Bft)
22.05.2013 22:25 5,8 C 96 % 1014,7 hPa 0,0 l/m 2,4 km/h (1 Bft) O 90 5,2 C 5,7 C 0,0 km/h (0 Bft)
22.05.2013 22:30 5,8 C 96 % 1014,7 hPa 0,0 l/m 1,6 km/h (1 Bft) S 180 5,2 C 5,7 C 2,1 km/h (1 Bft)
22.05.2013 22:35 5,8 C 96 % 1014,7 hPa 0,0 l/m 1,3 km/h (1 Bft) O-SO 112 5,2 C 5,7 C 2,6 km/h (1 Bft)
22.05.2013 22:40 5,8 C 96 % 1014,7 hPa 0,0 l/m 1,4 km/h (1 Bft) O-SO 112 5,2 C 5,7 C 1,6 km/h (1 Bft)
22.05.2013 22:45 5,8 C 96 % 1014,7 hPa 0,0 l/m 1,6 km/h (1 Bft) S-SW 202 5,2 C 5,7 C 4,0 km/h (1 Bft)
22.05.2013 22:50 5,8 C 96 % 1014,7 hPa 0,0 l/m 2,4 km/h (1 Bft) S 180 5,2 C 5,6 C 3,9 km/h (1 Bft)
22.05.2013 22:55 5,7 C 96 % 1014,7 hPa 0,0 l/m 2,9 km/h (1 Bft) S 180 5,1 C 5,6 C 2,9 km/h (1 Bft)
22.05.2013 23:00 5,7 C 96 % 1014,7 hPa 0,7 l/m 1,6 km/h (1 Bft) S 180 5,1 C 5,5 C 2,1 km/h (1 Bft)
22.05.2013 23:05 5,6 C 96 % 1014,6 hPa 0,0 l/m 1,9 km/h (1 Bft) O-SO 112 5,0 C 5,5 C 3,7 km/h (1 Bft)
22.05.2013 23:10 5,6 C 96 % 1014,6 hPa 0,0 l/m 2,6 km/h (1 Bft) S-SW 202 5,0 C 5,5 C 0,0 km/h (0 Bft)
22.05.2013 23:15 5,6 C 96 % 1014,6 hPa 0,0 l/m 2,4 km/h (1 Bft) SO 135 5,0 C 5,4 C 3,4 km/h (1 Bft)
22.05.2013 23:20 5,6 C 96 % 1014,6 hPa 0,0 l/m 1,3 km/h (1 Bft) S 180 5,0 C 5,4 C 2,4 km/h (1 Bft)
22.05.2013 23:25 5,6 C 96 % 1014,7 hPa 0,0 l/m 1,6 km/h (1 Bft) W 270 5,0 C 5,4 C 5,5 km/h (1 Bft)
22.05.2013 23:30 5,3 C 96 % 1014,7 hPa 0,7 l/m 4,0 km/h (1 Bft) W-SW 247 4,7 C 4,8 C 7,1 km/h (2 Bft)
22.05.2013 23:35 5,3 C 96 % 1014,7 hPa 0,0 l/m 4,0 km/h (1 Bft) SO 135 4,7 C 4,7 C 2,4 km/h (1 Bft)
22.05.2013 23:40 5,1 C 96 % 1014,7 hPa 0,7 l/m 4,5 km/h (1 Bft) W-SW 247 4,5 C 4,4 C 5,0 km/h (1 Bft)
22.05.2013 23:45 5,0 C 96 % 1014,8 hPa 0,0 l/m 5,8 km/h (2 Bft) W-SW 247 4,4 C 3,8 C 11,3 km/h (2 Bft)
22.05.2013 23:50 4,9 C 96 % 1014,8 hPa 0,0 l/m 5,6 km/h (1 Bft) S 180 4,3 C 3,7 C 5,0 km/h (1 Bft)
22.05.2013 23:53 4,9 C 96 % 1014,8 hPa 0,7 l/m 4,3 km/h (1 Bft) SW 225 4,3 C 4,1 C 2,9 km/h (1 Bft)
22.05.2013 23:55 4,9 C 96 % 1014,8 hPa 0,0 l/m 4,3 km/h (1 Bft) SW 225 4,3 C 4,1 C 2,9 km/h (1 Bft)
_ Min-Zeit 23:55 15:30 05:40 - 06:35 - - 23:55 18:05 23:10
Minimum _ 4,9 C 71 % 1010,8 hPa - 0,0 km/h (0 Bft) - - 4,3 C 1,8 C 0,0 km/h (0 Bft)
_ Max-Zeit 07:40 06:30 00:40 23:53 14:25 - - 07:40 07:50 14:25
Maximum _ 14,6 C 97 % 1018,1 hPa 0,7 l/m 13,4 km/h
S-SO (3 Bft)
- - 11,0 C 15,1 C 26,1 km/h
S-SO (4 Bft)
Durchschnitt _ 7,8 C 89 % 1013,0 hPa #6,2 l/m 4,4 km/h (1 Bft) S - 6,1 C 6,9 C 5,6 km/h (1 Bft)